CW8484 Weather Reports


Display with metric or nautical units.
time (UTC)temp
F
wind
direction
speed
MPH
gust
MPH
rain 1hr
in
rain 24hr
in
rain mn
in
humidity
%
barometer
mb
20260505230405 60 195 2.0 6.0 0.00 0.27 0.27 85 1002.6
20260505225405 61 185 2.0 11.0 0.00 0.27 0.27 85 1002.6
20260505224405 61 181 3.0 11.0 0.00 0.27 0.27 84 1002.6
20260505223406 61 168 5.0 10.0 0.00 0.27 0.27 84 1002.5
20260505222405 61 175 2.0 7.0 0.00 0.27 0.27 85 1002.7
20260505221404 61 183 4.0 7.0 0.00 0.27 0.27 83 1002.8
20260505220405 61 199 2.0 10.0 0.00 0.27 0.27 82 1002.5
20260505215405 60 196 6.0 17.0 0.00 0.27 0.27 82 1002.6
20260505214404 60 208 3.0 7.0 0.00 0.27 0.27 86 1002.8
20260505213404 60 184 0.0 8.0 0.00 0.27 0.27 85 1002.7
20260505211404 59 175 2.0 6.0 0.00 0.27 0.27 87 1002.2
20260505210425 59 161 0.0 7.0 0.00 0.27 0.27 87 1001.8
20260505205405 59 172 2.0 7.0 0.12 0.27 0.27 86 1001.8
20260505204425 59 229 1.0 7.0 0.12 0.27 0.27 86 1002.0
20260505203406 59 225 5.0 12.0 0.12 0.27 0.27 86 1001.6
20260505202405 59 226 7.0 19.0 0.12 0.27 0.27 84 1001.5
20260505201404 60 234 10.0 20.0 0.11 0.26 0.26 83 1001.9
20260505200405 61 246 10.0 19.0 0.02 0.17 0.17 82 1002.0
20260505195404 61 284 3.0 8.0 0.07 0.15 0.15 89 1001.4
20260505194405 61 192 0.0 0.0 0.07 0.15 0.15 89 1000.9
20260505193426 61 191 0.0 2.0 0.07 0.15 0.15 88 1000.6
20260505192404 62 193 0.0 1.0 0.07 0.15 0.15 88 1001.1
20260505191405 62 193 1.0 5.0 0.07 0.15 0.15 86 1000.5
20260505190405 62 204 0.0 12.0 0.01 0.09 0.09 84 1000.4
20260505185405 63 266 5.0 10.0 0.08 0.08 0.08 84 1000.4
20260505184425 62 256 1.0 11.0 0.08 0.08 0.08 85 1000.0
20260505183404 63 258 3.0 14.0 0.07 0.07 0.07 80 1000.4
20260505182404 67 248 6.0 15.0 0.02 0.02 0.02 68 1000.4
20260505181404 72 219 5.0 12.0 0.00 0.00 0.00 54 999.7
20260505180405 72 187 4.0 12.0 0.00 0.00 0.00 53 999.3
20260505175404 72 182 8.0 23.0 0.00 0.00 0.00 51 999.6
20260505174404 73 195 9.0 18.0 0.00 0.00 0.00 50 999.2
20260505173405 74 190 12.0 24.0 0.00 0.00 0.00 48 999.3
20260505172405 75 182 7.0 23.0 0.00 0.00 0.00 48 999.3
20260505171404 75 172 6.0 17.0 0.00 0.00 0.00 50 999.2
20260505170404 76 166 11.0 23.0 0.00 0.00 0.00 47 999.3
20260505165404 76 186 7.0 19.0 0.00 0.00 0.00 50 999.4
20260505164425 75 184 7.0 21.0 0.00 0.00 0.00 51 999.7
20260505163404 73 165 8.0 20.0 0.00 0.00 0.00 51 1000.0
20260505162404 73 181 10.0 21.0 0.00 0.00 0.00 52 1000.5
20260505161405 73 187 13.0 23.0 0.00 0.00 0.00 52 1000.5
20260505160426 72 166 9.0 20.0 0.00 0.00 0.00 53 1001.1
20260505152404 71 173 12.0 24.0 0.00 0.00 0.00 54 1001.6
20260505151404 71 166 8.0 24.0 0.00 0.00 0.00 54 1001.7
20260505150425 70 177 8.0 20.0 0.00 0.00 0.00 55 1001.5
20260505140404 63 177 8.0 23.0 0.00 0.00 0.00 60 1002.2
20260505124425 62 187 7.0 28.0 0.00 0.05 0.00 59 1002.4
20260505123404 62 167 10.0 21.0 0.00 0.05 0.00 58 1002.7
20260505122404 61 178 7.0 22.0 0.00 0.05 0.00 59 1002.6
20260505121404 60 184 10.0 22.0 0.00 0.05 0.00 59 1002.5
20260505120404 60 170 4.0 17.0 0.00 0.05 0.00 60 1002.5
20260505115404 60 175 6.0 18.0 0.00 0.05 0.00 60 1002.5
20260505114404 60 182 7.0 21.0 0.00 0.05 0.00 60 1002.5
20260505113404 60 174 4.0 22.0 0.00 0.05 0.00 60 1002.6
20260505112404 60 176 7.0 20.0 0.00 0.05 0.00 59 1002.6
20260505111404 59 171 7.0 21.0 0.00 0.05 0.00 60 1002.3
20260505110404 59 164 6.0 22.0 0.00 0.05 0.00 61 1002.4
20260505101404 58 168 5.0 20.0 0.00 0.05 0.00 60 1002.2
20260505100404 58 172 10.0 17.0 0.00 0.05 0.00 60 1002.4
20260505095404 58 178 9.0 19.0 0.00 0.05 0.00 60 1002.5
20260505094404 58 183 5.0 18.0 0.00 0.05 0.00 59 1002.5
20260505093404 59 177 6.0 17.0 0.00 0.05 0.00 58 1002.5
20260505092404 59 176 6.0 21.0 0.00 0.05 0.00 58 1002.5
20260505091404 59 159 8.0 17.0 0.00 0.05 0.00 58 1002.4
20260505090404 59 172 5.0 15.0 0.00 0.05 0.00 58 1002.6
20260505085425 59 169 5.0 15.0 0.00 0.05 0.00 58 1002.6
20260505084404 59 177 6.0 22.0 0.00 0.05 0.00 57 1002.8
20260505083424 59 146 3.0 17.0 0.00 0.05 0.00 57 1002.7
20260505082404 59 162 9.0 21.0 0.00 0.05 0.00 57 1002.8
20260505081404 59 168 7.0 15.0 0.00 0.05 0.00 57 1002.8
20260505080404 59 171 4.0 18.0 0.00 0.05 0.00 57 1002.7
20260505075404 59 162 6.0 18.0 0.00 0.05 0.00 56 1002.6
20260505074426 59 161 4.0 15.0 0.00 0.05 0.00 56 1002.4
20260505073403 59 167 5.0 21.0 0.00 0.05 0.00 56 1002.6
20260505072404 59 170 7.0 18.0 0.00 0.05 0.00 56 1002.8
20260505071403 59 156 4.0 14.0 0.00 0.05 0.00 56 1002.7
20260505070425 59 163 5.0 14.0 0.00 0.05 0.00 55 1002.7
20260505065425 59 176 6.0 21.0 0.00 0.05 0.00 55 1002.8
20260505064403 59 187 2.0 18.0 0.00 0.05 0.00 55 1002.8
20260505063404 59 167 7.0 18.0 0.00 0.05 0.00 56 1002.8
20260505062403 58 176 8.0 16.0 0.00 0.05 0.00 55 1002.7
20260505061404 59 176 8.0 19.0 0.00 0.05 0.00 55 1002.6
20260505060404 58 178 7.0 14.0 0.00 0.05 0.00 55 1002.6
20260505055404 59 170 5.0 13.0 0.00 0.05 0.00 55 1002.7
20260505054404 58 174 5.0 15.0 0.00 0.05 0.00 55 1002.7
20260505053404 58 164 5.0 18.0 0.00 0.05 0.00 56 1002.8
20260505052403 58 159 5.0 11.0 0.00 0.05 0.00 57 1002.9
20260505051404 58 172 3.0 11.0 0.00 0.05 0.00 57 1002.9
20260505050404 58 190 2.0 14.0 0.00 0.05 0.00 57 1003.0
20260505041403 56 169 4.0 11.0 0.00 0.05 0.00 61 1003.2
20260505040426 55 181 2.0 10.0 0.00 0.05 0.00 63 1003.3
20260505035403 55 167 3.0 10.0 0.00 0.05 0.05 63 1003.3
20260505034404 55 161 2.0 7.0 0.00 0.05 0.05 63 1003.3
20260505033446 55 181 1.0 7.0 0.00 0.05 0.05 63 1003.3
20260505032425 56 150 1.0 8.0 0.00 0.05 0.05 62 1003.3
20260505031403 56 161 1.0 9.0 0.00 0.05 0.05 61 1003.4
20260505030404 56 177 0.0 7.0 0.00 0.05 0.05 61 1003.5
20260505025404 56 168 3.0 9.0 0.00 0.05 0.05 61 1003.6
20260505024424 55 169 2.0 9.0 0.00 0.05 0.05 63 1003.6
20260505023404 55 174 1.0 6.0 0.00 0.05 0.05 64 1003.6
20260505022425 55 180 1.0 6.0 0.00 0.05 0.05 63 1003.7
20260505021404 55 183 0.0 3.0 0.00 0.05 0.05 63 1003.8
20260505020404 55 184 0.0 3.0 0.00 0.05 0.05 63 1003.8
20260505015404 56 184 0.0 4.0 0.00 0.05 0.05 62 1003.9
20260505013404 56 185 1.0 4.0 0.00 0.05 0.05 61 1003.9
20260505012403 57 184 1.0 5.0 0.00 0.05 0.05 59 1003.8
20260505011425 57 184 1.0 6.0 0.00 0.05 0.05 58 1003.8
20260505010404 57 186 1.0 6.0 0.00 0.05 0.05 58 1003.7
20260505005403 57 183 1.0 5.0 0.00 0.05 0.05 58 1003.7
20260505004404 58 183 2.0 5.0 0.00 0.05 0.05 57 1003.7
20260505003403 58 184 1.0 4.0 0.00 0.05 0.05 56 1003.6
20260505002403 59 184 1.0 7.0 0.00 0.05 0.05 56 1003.6
20260505001403 59 201 2.0 5.0 0.00 0.05 0.05 55 1003.4
20260505000405 61 205 1.0 7.0 0.00 0.05 0.05 54 1003.3
20260504235404 61 194 2.0 7.0 0.00 0.05 0.05 52 1003.2
20260504234403 62 187 2.0 6.0 0.00 0.05 0.05 51 1003.1
20260504233404 63 201 3.0 9.0 0.00 0.05 0.05 50 1003.0
20260504232404 63 183 2.0 7.0 0.00 0.05 0.05 50 1002.9
20260504231404 64 211 3.0 10.0 0.00 0.05 0.05 49 1002.8